Back to catalog

BEIJING-3

AliveScienceSSO
NORAD 48843·PAYLOAD·🇨🇳 China
This satellite name has not been confirmed by official sources yet.

Launched Jun 11, 2021 from Taiyuan Satellite Launch Center

Loading…

Next Passes (next 24 hours)

TLE

FreshSource: Space-Track

Epoch: Sep 14, 2026, 15:39 UTC

1 48843U 21050D   26257.65238382  .00003105  00000-0  13593-3 0  9997
2 48843  97.3271 331.6533 0009953 310.4446  49.5922 15.22731610292585

Track BEIJING-3 in real time with AllMySat

Download on the App Store